Wind_Speed
23 22 21 22 23 24 23 23 22 23 24 24 24 24 25 26 27 26 26 26 27 29 28 28 28 28 27 26 25 24 24 25 25 25 23 22 22 22 22 21 20 20 19 18 19 19 20 21 22 22 22 23 23 23 22 22 22 21 20 20 20 19 19 19 19 19 18 17 17 18 18 17 18 18 18 17 17 18 18 18 19 19 21 21 22
27 24 23 23 24 25 25 23 23 24 25 24 23 23 24 25 26 26 26 25 25 26 26 26 26 26 25 25 24 23 24 26 26 25 24 23 23 23 22 21 21 20 20 20 21 21 21 22 22 22 22 24 24 22 22 22 21 20 19 21 21 19 19 19 18 18 17 17 17 18 18 17 18 18 18 17 17 18 18 19 19 19 21 21 22
28 26 23 24 25 25 25 23 23 24 25 25 24 23 23 24 25 25 25 26 25 25 24 24 25 24 24 24 23 23 25 26 25 25 25 23 24 24 23 22 21 20 20 21 21 21 22 23 22 23 23 23 23 21 21 21 20 20 20 21 21 19 19 18 17 17 17 16 17 19 19 18 18 17 18 17 17 18 18 18 18 18 21 22 22
27 26 24 25 25 26 25 23 23 24 26 25 24 23 22 23 23 23 24 25 25 24 24 24 23 23 23 23 23 25 26 26 25 24 24 23 24 24 22 21 21 20 20 21 20 21 22 22 21 21 21 21 21 20 20 19 19 19 20 20 20 19 18 19 19 19 18 16 16 18 19 18 18 17 17 17 16 17 17 17 17 18 20 21 21
27 26 25 25 24 26 25 24 23 25 26 24 24 23 22 22 22 23 24 24 25 23 23 24 23 23 23 24 24 25 25 25 25 24 23 22 23 23 22 21 21 21 20 20 21 20 20 20 20 20 19 20 21 20 19 18 17 17 18 17 17 18 17 18 19 20 19 16 16 17 18 17 16 16 16 16 16 17 16 14 17 17 17 19 19
27 26 26 25 25 26 25 25 23 25 26 24 24 23 22 22 22 23 23 24 24 23 23 24 23 23 23 24 24 23 23 23 24 23 22 22 23 24 23 22 22 21 21 21 21 20 19 19 19 19 19 19 19 18 17 16 15 14 13 13 14 14 15 16 18 18 18 18 17 17 16 16 15 15 15 15 15 16 14 13 15 15 14 16 16
27 26 26 26 26 26 26 25 23 24 25 25 24 23 23 22 22 22 23 24 24 24 24 24 23 22 22 21 22 21 21 22 23 22 22 22 22 22 21 21 21 21 21 21 21 19 18 19 19 19 18 18 18 16 15 14 13 11 10 11 12 12 13 14 16 17 17 19 19 17 15 14 14 14 13 13 13 14 13 12 13 13 13 13 13
27 26 26 26 26 26 26 25 23 24 24 24 25 24 23 22 23 22 23 24 24 25 24 24 23 22 22 22 20 20 21 22 23 23 23 22 20 20 20 20 20 20 21 21 20 19 18 18 18 18 18 18 17 16 14 13 12 10 9 9 10 9 10 12 14 15 16 18 18 16 14 13 14 15 13 11 12 12 12 11 10 12 13 12 13
26 25 25 26 26 26 26 24 23 23 23 24 24 24 23 23 22 22 23 23 24 24 24 23 22 21 22 22 21 20 21 21 22 23 23 21 20 20 20 19 19 20 20 19 19 19 18 18 18 18 17 17 16 15 14 12 10 8 8 9 9 8 8 10 12 13 15 16 16 15 14 14 14 14 12 10 11 10 11 11 11 12 12 12 12
24 24 25 26 27 26 25 24 23 23 23 23 24 23 23 23 22 22 22 22 23 23 22 22 21 20 21 22 22 20 20 20 21 22 22 21 20 20 20 19 19 20 20 18 19 19 18 18 17 17 17 16 15 15 12 10 9 8 9 10 11 10 9 10 11 14 17 18 17 17 16 16 16 14 12 11 11 10 10 10 11 11 12 12 12
23 24 25 26 27 26 26 24 23 23 23 23 23 22 22 22 21 21 21 21 21 20 20 20 20 19 20 21 21 20 20 20 20 21 21 21 20 19 19 17 17 19 19 18 18 18 17 17 17 17 17 16 15 13 11 10 9 9 11 13 13 12 10 11 12 14 18 19 17 17 17 16 16 15 14 13 12 11 10 10 9 10 11 12 11
23 24 25 26 26 26 25 24 24 24 23 23 22 21 21 20 20 20 20 20 20 19 18 18 19 19 20 20 20 20 20 19 19 19 20 20 19 19 18 16 16 17 18 18 18 17 17 17 17 17 16 15 13 12 11 10 10 10 12 13 14 13 12 12 13 15 17 17 16 16 16 16 15 15 15 14 13 12 11 11 10 10 11 12 11
23 24 26 26 25 25 25 24 24 24 23 22 21 20 20 20 20 19 19 20 19 18 18 18 18 19 19 19 19 20 20 19 18 18 18 18 18 17 17 16 16 16 16 17 17 17 17 17 17 17 15 14 13 12 12 12 11 11 12 13 13 12 12 13 14 16 17 17 16 16 17 16 14 14 14 13 13 13 12 12 12 12 12 11 11
25 25 26 26 26 25 24 24 24 23 23 22 21 21 20 19 19 19 19 20 19 18 18 17 17 18 18 18 18 19 19 18 17 17 16 16 15 15 15 15 15 14 15 16 16 17 17 17 17 16 14 13 12 12 13 13 12 12 12 12 12 12 12 12 14 16 16 15 15 16 16 15 13 13 13 12 12 12 12 12 12 12 11 11 11
26 27 27 26 26 25 24 24 24 23 23 22 22 21 20 19 18 18 19 19 19 19 18 17 17 17 17 17 17 17 17 16 15 15 14 14 14 14 13 13 13 14 14 15 15 16 16 17 17 15 13 12 12 13 14 14 13 12 12 11 11 11 11 12 14 15 15 14 14 15 15 14 14 14 13 13 12 12 11 11 11 10 10 10 10
26 27 26 26 26 25 24 24 24 24 23 22 22 21 20 18 18 18 19 19 19 19 18 17 17 16 15 16 16 16 15 14 14 13 13 13 13 13 13 12 12 14 15 15 16 16 16 17 16 14 12 12 12 13 14 15 13 11 12 11 11 10 10 11 13 13 14 13 14 14 14 15 14 13 13 13 12 11 11 11 11 11 11 11 11
25 26 26 26 27 26 25 24 24 23 23 22 21 21 19 18 18 19 19 19 19 18 17 16 16 16 15 15 15 14 13 13 13 13 12 12 12 12 12 12 12 13 14 14 15 17 17 17 16 13 12 11 12 13 13 15 13 11 11 12 11 10 9 10 12 12 13 13 13 13 14 14 13 13 13 12 12 11 11 11 11 10 10 11 11
25 25 27 27 27 26 25 24 23 23 23 22 21 20 18 19 19 18 19 19 18 17 16 16 16 15 15 15 14 14 13 13 12 12 11 11 12 12 12 12 12 12 12 13 14 16 17 17 16 13 11 10 11 12 13 14 13 10 11 12 12 10 10 10 11 12 12 12 12 12 13 13 12 13 13 12 12 11 11 11 10 10 10 10 11
25 25 26 27 27 26 25 24 24 24 23 22 21 20 18 19 19 18 18 18 17 16 16 16 15 15 15 15 15 14 14 13 12 12 12 12 12 12 12 12 11 11 12 12 13 15 16 17 16 14 12 10 10 12 12 13 13 10 11 13 12 11 10 9 10 11 12 12 13 13 13 13 12 12 12 12 12 11 11 11 11 11 11 11 11
25 26 26 26 26 26 25 24 25 25 24 23 22 20 18 19 19 18 17 16 16 15 15 15 15 15 15 15 15 15 14 14 13 12 12 11 12 12 12 11 10 10 10 11 11 13 14 15 15 14 12 10 10 11 12 13 12 11 11 13 13 11 10 9 9 11 12 12 12 13 12 12 12 12 12 12 11 11 11 10 11 11 11 11 11
24 24 25 25 26 25 25 25 25 25 23 23 21 19 19 19 19 18 17 16 15 15 15 15 15 15 15 16 16 15 14 14 13 13 12 12 11 11 11 11 11 10 9 10 11 11 12 12 13 14 12 11 10 10 12 12 12 11 13 14 14 11 9 8 9 11 11 11 12 12 12 12 12 11 11 11 11 11 11 10 10 11 11 10 10
24 23 24 25 25 24 24 25 25 24 23 22 21 19 19 20 20 18 17 16 15 15 15 16 16 16 15 16 15 15 14 14 13 13 13 12 12 11 10 11 11 10 9 9 9 10 10 11 12 13 13 12 10 10 12 13 12 12 14 15 14 12 9 8 9 10 11 11 11 12 11 11 10 10 10 10 10 10 10 9 10 10 11 10 10
23 23 23 23 24 24 24 25 25 24 23 22 21 20 20 20 19 18 17 17 16 16 16 16 17 16 16 16 15 15 15 13 12 13 13 12 12 12 11 12 11 11 9 8 8 8 9 9 10 12 13 13 11 11 12 13 12 12 14 15 14 12 10 8 8 9 10 11 11 11 10 10 10 9 9 9 10 9 9 9 9 10 11 10 9
24 24 23 22 23 24 24 25 25 24 24 23 22 21 21 21 20 19 18 18 18 18 17 17 16 16 16 16 15 15 14 13 12 12 12 13 13 13 13 12 11 10 8 8 8 8 8 8 9 10 12 13 11 11 12 13 13 13 15 15 14 13 10 9 9 9 10 11 11 10 9 9 9 9 8 9 9 8 7 8 8 10 10 9 9
24 23 23 23 24 24 25 25 24 24 24 24 23 22 22 21 20 19 19 19 18 18 17 16 16 15 15 16 16 15 14 14 13 12 12 13 13 13 12 11 10 9 7 6 7 8 8 9 9 9 11 11 11 10 11 13 13 14 16 16 14 13 11 10 9 10 10 10 11 10 9 9 8 8 8 8 9 7 5 6 8 9 9 9 10
24 24 25 25 25 25 26 25 24 25 25 25 24 23 23 22 21 21 20 19 18 18 17 16 15 14 16 16 16 15 14 13 12 11 11 12 12 12 11 10 9 8 7 6 6 7 8 9 9 9 9 9 9 9 10 12 13 14 15 15 14 13 11 10 9 9 10 11 11 11 9 8 8 8 7 7 8 7 5 5 7 9 9 10 10
23 23 26 26 25 26 26 26 25 26 25 24 25 24 23 23 22 21 20 18 18 17 15 14 14 14 15 14 15 14 13 13 11 10 10 10 11 11 11 10 9 8 7 5 6 6 7 8 8 8 8 7 6 7 8 10 11 12 14 15 14 12 11 10 9 9 10 10 11 11 9 8 8 7 6 6 7 7 6 6 7 8 9 9 9
21 22 26 25 26 28 27 27 27 26 25 24 25 24 23 23 21 19 18 17 16 15 14 13 13 14 13 13 13 13 12 12 10 9 9 10 10 11 11 10 9 7 6 5 5 5 6 6 7 7 7 6 5 6 8 10 10 11 12 14 13 12 11 10 9 9 10 10 11 11 9 8 7 6 6 6 8 8 7 8 8 8 8 8 8
21 22 28 25 25 30 28 27 27 25 25 25 25 24 23 22 20 19 18 16 15 14 13 13 13 14 13 13 13 12 11 10 9 8 8 9 9 9 10 9 7 6 5 5 4 5 5 5 6 6 6 5 5 7 10 11 11 10 10 12 13 13 12 10 10 10 10 10 11 10 8 7 6 6 6 7 8 8 9 9 8 7 7 7 8
22 22 28 27 24 29 28 26 25 23 25 26 26 25 23 22 20 18 17 15 15 14 13 13 13 13 14 14 12 10 9 8 8 7 7 7 8 8 8 7 6 5 5 4 4 5 5 5 5 5 5 5 6 8 12 13 12 10 9 10 12 13 12 11 10 10 11 11 11 9 7 5 6 5 4 7 8 7 9 10 9 8 7 7 8
23 22 26 28 25 28 26 23 22 22 26 27 26 25 22 21 19 17 16 15 14 14 13 13 12 13 13 13 12 9 7 7 7 7 7 6 7 7 6 6 4 4 4 4 4 4 5 5 6 6 5 5 6 7 10 12 12 11 9 10 11 12 13 12 11 11 11 12 11 9 8 6 5 5 4 7 8 6 7 9 9 8 7 7 7
26 26 26 29 27 26 24 21 21 22 26 27 26 25 22 20 18 16 15 14 14 13 13 13 12 12 11 11 10 8 7 7 8 7 6 6 6 6 5 4 3 2 4 3 3 4 5 6 6 7 6 6 6 7 9 10 11 11 10 10 11 13 14 14 13 13 13 12 11 9 8 8 5 4 4 7 8 7 6 6 8 9 8 7 7
28 26 25 29 27 25 24 20 20 22 26 27 26 24 21 20 18 16 14 14 14 14 14 13 12 13 11 9 8 8 8 7 8 7 6 6 5 5 4 3 4 3 3 2 2 4 5 6 7 8 7 7 6 7 8 9 10 10 9 9 10 12 15 15 14 13 12 12 12 10 9 8 6 4 4 6 8 7 5 3 6 10 10 9 8
28 27 25 27 26 24 22 19 20 22 26 26 25 23 21 20 17 15 14 13 14 14 13 13 12 12 10 8 6 7 8 7 7 7 6 6 5 5 4 4 6 4 3 2 2 4 5 5 7 8 8 8 7 7 8 9 10 9 8 8 8 11 14 14 12 10 11 12 12 11 9 8 7 5 4 5 6 6 5 4 6 9 11 10 9
17 19 21 22 21 20 20 19 21 22 25 25 23 22 20 19 17 16 15 14 14 14 13 12 11 10 8 6 6 7 8 7 7 7 7 6 5 5 6 7 7 5 4 3 2 4 5 6 7 8 8 8 7 8 8 9 9 9 9 8 8 10 12 12 10 10 11 11 11 11 9 8 7 6 5 5 5 5 5 6 7 8 8 6 7
5 6 12 18 18 18 19 20 21 23 24 23 21 20 19 18 17 16 15 15 14 13 12 10 9 8 8 7 6 7 8 8 8 8 8 8 7 6 7 8 7 6 4 3 3 4 5 6 6 7 7 8 8 8 8 8 9 10 10 10 9 11 11 10 10 12 12 10 10 10 9 8 8 6 6 6 6 5 5 5 6 6 5 3 3
6 5 9 16 17 16 20 21 21 23 23 23 20 19 18 17 17 16 15 15 13 11 10 9 8 7 8 8 7 8 8 8 8 8 8 9 8 8 9 9 9 7 6 5 4 4 5 5 6 6 5 6 8 9 9 8 10 11 12 11 10 11 11 10 10 11 11 10 10 10 9 8 8 7 6 7 7 6 5 5 4 4 3 1 1
16 16 14 17 20 18 21 22 22 23 22 22 20 19 18 16 16 15 15 14 12 10 10 8 7 7 8 8 8 8 8 8 8 9 8 8 8 8 8 8 8 8 7 6 5 5 5 5 6 6 5 6 7 8 10 10 11 12 12 12 10 11 10 9 9 10 9 8 8 9 9 9 8 8 7 7 6 5 5 6 5 4 3 1 1
20 25 23 24 27 23 22 23 22 23 22 21 20 19 18 16 15 14 14 13 12 10 10 9 7 7 7 8 8 8 8 8 8 8 8 7 7 7 7 6 7 8 8 6 5 6 7 6 6 6 6 6 7 9 12 12 13 13 12 12 11 10 7 6 7 9 9 9 8 8 8 9 9 9 9 8 6 4 4 5 5 4 3 1 1
27 33 34 33 34 30 26 25 23 23 22 21 20 19 18 17 15 13 13 13 12 11 10 9 7 7 8 9 8 9 9 8 8 8 7 7 7 7 7 7 7 8 8 7 7 8 8 8 7 7 8 8 8 10 13 15 16 16 15 13 12 8 5 6 8 10 10 10 9 8 8 9 9 10 9 8 6 4 3 4 4 2 0 2 3
27 35 39 37 37 35 30 27 25 24 23 22 21 20 19 17 15 14 14 13 13 12 10 9 8 9 10 10 9 8 9 8 8 8 7 7 7 7 8 9 9 9 9 8 8 8 10 9 9 9 9 10 12 13 14 16 17 17 15 14 14 9 5 6 9 10 10 10 10 9 9 9 9 10 9 7 6 4 3 3 2 2 3 4 5
17 20 25 26 30 32 30 29 26 25 24 23 22 21 20 19 17 16 16 15 14 12 11 10 10 11 11 10 9 8 8 8 7 7 6 6 6 7 9 10 10 10 10 9 9 10 12 12 11 11 11 13 14 16 16 13 11 13 13 12 13 9 5 6 10 7 6 8 9 9 9 8 8 8 8 7 5 3 2 2 2 4 5 5 6
14 13 15 18 25 29 28 28 27 26 25 24 23 21 20 20 18 17 16 15 14 12 11 11 12 12 11 9 8 8 7 7 6 6 6 5 5 7 9 10 10 10 10 11 10 11 14 14 13 12 13 14 14 16 16 9 10 15 12 6 4 5 4 7 10 8 7 9 9 5 7 7 6 6 7 7 6 4 4 4 4 7 7 7 7
15 16 17 18 22 26 27 27 27 27 26 24 23 21 20 19 16 15 15 14 14 13 12 12 13 11 10 9 8 8 7 7 6 5 5 5 5 6 8 9 10 10 10 12 11 12 15 15 14 13 14 16 15 16 14 8 12 14 8 3 2 2 2 4 8 9 8 11 11 6 5 6 5 6 8 7 7 7 7 8 7 8 8 8 9
17 18 18 18 20 23 25 25 25 26 25 24 23 22 21 19 16 14 13 12 13 14 14 14 14 12 11 10 9 8 7 6 5 5 5 5 5 6 7 9 10 9 10 12 11 11 14 15 15 14 14 15 15 17 14 9 12 12 6 5 3 1 2 4 6 7 9 12 10 7 7 9 8 9 10 9 9 9 9 10 9 8 8 9 10
19 18 18 18 19 22 24 23 23 24 24 24 24 23 22 21 18 17 16 15 15 16 17 16 14 12 11 10 9 8 6 6 5 5 5 5 6 7 7 8 9 8 9 10 10 10 12 14 15 14 13 13 14 17 16 10 12 11 7 6 3 2 7 8 4 3 8 11 9 7 8 10 11 12 13 12 12 12 10 10 9 9 10 10 10
19 19 19 17 17 21 23 23 23 23 23 23 23 23 22 21 20 20 20 19 19 18 16 15 14 13 12 11 10 9 7 7 6 6 6 6 6 6 7 7 8 7 8 9 9 9 10 13 14 14 12 12 13 16 17 13 13 11 7 6 2 3 12 11 5 4 4 7 8 10 10 11 12 13 13 12 12 11 11 10 10 10 11 10 10
17 19 18 15 16 20 23 22 22 23 23 23 23 22 22 21 20 20 20 20 20 18 15 14 13 13 13 11 10 10 9 8 8 8 7 7 6 5 6 7 7 8 8 9 9 8 9 11 13 13 12 12 11 13 16 14 14 13 8 5 1 3 11 10 9 11 6 3 6 9 11 13 13 12 12 11 11 11 11 11 11 11 12 11 11
15 17 17 15 17 21 23 23 23 23 23 23 23 21 20 20 20 19 19 18 17 16 15 14 14 14 13 12 11 11 10 9 8 8 8 7 6 6 5 6 7 7 8 8 9 9 10 10 12 13 12 12 11 11 13 13 15 14 10 7 4 7 9 7 10 13 9 5 4 4 8 11 12 11 11 11 10 10 11 11 11 12 11 11 11
12 14 15 16 18 22 24 23 23 23 22 22 22 20 20 20 19 20 19 18 16 15 15 14 14 13 12 12 13 13 11 9 8 8 7 6 6 5 4 4 5 6 7 8 9 10 11 11 11 12 11 12 12 11 11 11 13 14 12 10 10 12 9 6 10 13 10 8 6 6 7 8 8 8 9 10 9 9 9 10 10 11 10 10 10
10 12 15 16 18 21 23 22 22 22 22 22 21 20 20 19 19 20 19 17 16 16 16 16 16 15 14 15 15 14 13 11 10 9 7 6 5 4 3 3 4 6 7 7 8 9 10 10 10 11 11 11 11 11 10 10 12 14 13 11 12 13 11 9 14 16 14 12 9 7 7 8 8 7 8 9 8 8 8 9 9 9 9 9 8
Wind_Direction
157 153 157 160 158 152 149 146 145 142 137 134 133 131 130 129 130 130 127 124 127 131 131 131 132 133 134 132 132 131 133 131 129 127 125 124 122 121 119 117 117 115 114 113 114 113 111 112 111 109 108 107 104 99 97 96 94 92 88 85 85 85 84 84 90 92 90 79 70 78 87 90 93 95 94 90 87 85 82 83 87 87 86 88 90
155 153 156 160 159 154 151 148 147 144 139 136 134 132 130 129 131 132 132 128 126 128 130 131 131 132 132 131 131 133 134 131 127 125 123 122 121 120 119 118 118 117 115 113 113 112 111 112 112 112 111 108 105 101 100 98 94 92 89 84 83 91 90 87 91 94 97 90 76 79 82 87 92 92 92 90 87 84 81 79 81 85 86 86 88
149 151 156 160 159 155 152 149 148 145 140 137 135 133 131 130 130 132 135 135 131 129 129 129 130 130 131 131 133 135 133 129 126 126 124 120 120 120 119 118 118 117 116 114 113 113 114 114 113 113 110 106 105 104 102 99 96 93 91 84 80 87 94 92 92 98 105 100 88 87 83 82 89 90 92 90 87 84 82 79 78 83 88 85 84
147 151 156 158 158 155 152 150 149 145 141 137 136 134 132 131 128 128 131 135 135 133 132 130 130 130 131 133 135 136 131 128 128 126 124 120 118 118 118 117 117 117 115 115 115 114 115 114 111 111 108 105 106 105 104 101 98 95 90 84 80 82 93 97 96 101 108 108 100 93 87 82 84 87 90 89 87 83 81 83 78 76 79 80 81
148 152 154 156 157 154 152 151 149 147 142 137 136 135 134 131 128 127 126 130 131 132 135 133 131 131 131 131 132 130 128 128 129 127 124 119 116 118 118 117 118 118 116 116 117 116 115 113 112 111 108 106 107 106 105 104 102 100 92 83 82 81 89 101 103 103 105 109 110 99 89 83 81 83 86 83 81 79 79 79 75 72 75 78 79
150 152 154 157 157 155 153 152 151 148 143 138 137 136 135 132 130 128 128 130 129 132 135 134 133 132 131 130 129 127 127 128 129 128 125 119 117 119 119 118 119 120 119 118 118 118 116 114 114 112 109 107 107 106 106 107 107 107 97 82 81 81 85 101 108 108 104 101 109 107 94 88 84 83 85 81 78 79 79 75 73 75 81 79 75
149 151 155 158 156 155 153 152 152 148 144 140 139 137 137 134 131 129 131 132 132 135 135 135 134 133 133 133 132 132 133 132 132 128 122 119 118 120 120 120 121 123 122 121 121 120 118 117 115 113 112 110 108 106 105 107 109 107 99 90 87 83 84 99 108 110 107 101 105 108 103 100 97 92 89 84 80 81 79 75 78 78 80 83 78
149 152 156 157 155 154 152 153 153 149 145 143 142 140 138 135 132 131 131 133 137 138 136 135 132 133 135 136 134 132 133 132 132 125 119 118 120 122 121 121 121 124 125 123 122 122 121 119 117 116 115 113 111 109 107 106 107 107 105 105 101 93 88 98 107 107 108 109 110 112 112 108 104 101 94 90 87 84 85 81 78 78 76 80 81
148 153 156 156 154 153 153 154 153 149 146 144 143 141 140 137 134 133 133 137 139 139 137 135 132 134 136 137 135 134 131 131 131 124 122 123 123 123 122 123 122 124 126 125 125 126 125 122 120 118 116 113 111 109 107 104 103 103 99 103 112 116 103 99 102 102 109 117 115 112 114 109 105 105 101 97 90 86 97 91 79 81 81 77 74
148 154 157 156 154 155 155 155 153 149 147 145 144 143 142 139 137 137 137 139 139 139 137 134 135 138 140 139 137 138 136 134 133 128 127 128 127 128 129 127 123 125 128 127 127 129 128 126 122 119 117 115 112 108 104 98 93 89 86 95 114 125 115 103 100 100 109 116 110 101 101 101 99 100 103 101 95 95 100 92 82 84 85 80 75
150 156 158 155 155 158 157 155 153 149 148 146 145 146 142 139 139 141 141 142 141 140 137 136 139 141 143 142 140 139 140 139 136 133 133 133 133 135 136 130 123 124 129 130 130 131 130 128 124 121 120 117 112 106 99 93 85 81 86 97 109 118 113 104 101 104 111 111 106 99 96 98 95 94 98 97 96 99 97 90 88 88 86 83 82
153 158 157 154 156 159 157 155 152 150 149 145 146 146 142 140 141 143 145 146 144 140 139 140 141 142 143 143 142 142 142 141 138 137 137 139 140 141 141 135 127 122 126 131 132 133 131 128 125 122 120 117 110 103 98 90 85 86 93 99 103 109 110 103 100 108 113 111 109 107 102 100 98 97 97 95 92 92 90 88 88 90 91 89 88
154 157 155 155 158 159 156 153 152 150 148 146 149 147 144 145 145 147 150 149 146 143 143 144 142 142 143 143 145 144 144 142 139 139 141 143 142 142 140 135 130 121 121 127 131 134 132 129 126 123 121 117 109 102 98 90 90 95 101 104 104 106 106 101 100 107 115 117 116 115 112 107 103 101 98 94 91 90 87 87 87 90 94 94 90
154 157 156 159 159 158 155 153 152 150 149 150 152 149 149 149 149 152 153 153 150 147 146 144 142 142 145 146 145 143 142 141 141 143 144 144 142 142 140 136 129 122 120 123 130 134 134 132 127 125 122 117 109 102 98 93 95 104 110 110 107 105 105 101 100 107 113 117 116 116 115 107 101 101 98 94 93 92 89 88 88 89 92 93 91
154 156 158 159 157 157 156 153 153 153 153 153 153 153 153 151 152 154 155 156 153 149 146 143 143 144 146 145 143 141 141 142 144 146 145 142 141 140 138 136 131 126 125 126 132 136 135 133 129 124 119 115 108 100 98 97 99 110 117 118 112 106 103 101 102 106 109 112 116 118 116 108 101 98 98 95 94 93 90 89 87 87 89 88 89
154 157 160 158 157 159 156 155 156 156 156 155 156 156 155 153 153 154 154 154 151 150 148 145 144 145 147 145 144 143 142 144 145 145 141 138 137 134 131 130 128 126 125 126 133 139 139 136 132 125 118 114 107 100 100 101 103 114 123 125 119 111 106 102 103 105 104 109 115 118 118 116 111 104 103 100 97 94 89 85 84 85 86 85 86
154 158 159 158 161 160 158 159 159 158 157 157 158 158 155 153 155 155 152 150 148 150 149 147 148 148 150 149 146 144 143 143 143 141 137 136 134 131 129 127 125 123 122 122 130 140 144 143 139 133 124 116 109 103 103 105 106 119 130 131 128 119 114 107 103 104 104 107 114 121 120 117 115 109 105 104 101 96 91 87 85 85 85 87 86
155 159 159 161 164 162 161 161 160 160 158 158 158 157 155 154 156 155 152 149 148 149 149 150 151 151 151 150 145 141 139 139 137 135 132 134 136 134 130 126 126 125 123 122 127 139 148 151 149 144 135 122 113 108 107 109 109 122 136 137 137 129 123 115 106 104 105 106 113 126 125 119 116 110 108 107 103 98 94 90 87 86 85 85 84
158 160 162 165 165 164 163 160 161 162 160 159 157 156 155 157 157 156 154 150 148 150 151 153 153 152 152 149 143 139 136 134 132 130 130 131 136 136 128 122 124 126 127 125 127 138 149 156 157 154 146 131 120 114 112 113 113 124 139 142 143 139 134 123 111 106 107 107 110 121 126 123 118 112 112 109 105 102 98 93 89 86 84 84 84
160 163 165 167 166 165 163 161 163 163 162 159 156 157 157 158 157 156 155 149 149 152 152 154 155 152 150 146 142 141 137 134 132 130 131 131 134 132 126 122 121 124 126 128 129 135 145 155 159 158 152 140 127 118 116 116 118 128 140 145 148 147 142 130 116 111 109 109 109 112 118 120 118 114 113 111 110 109 101 95 93 90 87 87 86
162 165 166 166 166 165 163 161 164 165 163 160 158 157 156 159 158 156 153 151 152 152 153 155 155 153 149 148 148 144 137 134 132 132 133 132 131 128 127 128 127 129 130 130 130 130 137 149 158 160 156 150 138 124 120 118 123 135 142 147 151 150 145 133 121 116 113 113 111 111 114 117 119 118 116 114 111 105 101 97 95 96 93 91 89
163 166 167 168 165 163 162 161 164 166 163 160 159 156 159 160 157 155 153 152 151 151 153 153 154 155 153 153 153 147 140 136 134 135 135 133 132 132 132 130 129 131 130 127 127 128 130 138 152 160 160 158 148 130 124 122 126 140 145 147 151 151 148 138 126 120 117 116 115 117 120 118 117 114 110 111 111 107 107 103 97 99 98 94 92
164 166 168 169 165 160 162 163 165 166 164 162 159 158 161 161 157 156 154 152 151 153 153 153 156 158 157 156 155 149 143 137 135 135 135 135 135 135 133 128 129 129 127 124 124 127 126 128 140 153 158 160 153 134 127 126 129 141 147 148 151 152 151 144 134 124 121 119 119 122 121 116 113 107 96 94 103 108 108 107 104 103 103 102 101
166 165 166 169 166 162 165 167 168 168 167 165 161 161 163 161 160 158 157 156 156 158 155 155 158 158 157 157 154 148 142 136 134 137 138 139 137 135 134 132 131 127 124 124 124 128 128 127 129 141 152 158 152 135 132 132 132 142 147 150 152 154 156 152 141 130 127 123 124 128 123 118 114 108 98 86 89 98 105 111 110 102 101 102 99
165 163 166 171 168 166 169 170 170 171 170 168 164 164 165 163 163 163 162 162 162 161 158 159 160 157 156 156 153 148 146 142 142 146 145 141 138 137 136 133 130 124 125 129 129 129 127 125 122 129 142 150 148 135 137 138 135 142 147 151 154 158 162 157 146 136 131 128 131 134 129 125 117 111 106 90 79 80 96 109 110 107 105 101 98
165 165 168 171 171 170 171 170 172 175 174 171 167 165 167 165 165 168 166 166 167 162 161 164 161 158 154 152 152 151 151 147 149 153 146 139 137 136 133 129 128 125 130 137 136 132 125 121 118 122 129 136 140 135 139 143 138 141 148 153 158 163 166 158 151 142 134 133 135 137 137 132 120 114 109 92 73 62 76 97 106 108 104 98 97
167 168 167 167 172 175 174 173 175 177 176 171 168 166 168 168 167 171 170 169 168 164 164 162 157 154 150 150 153 155 155 151 153 153 145 140 139 136 133 130 129 130 134 143 145 139 129 121 116 115 116 120 131 138 143 149 144 139 146 155 163 167 166 161 157 149 139 136 138 139 137 132 123 116 111 96 76 64 73 89 97 99 96 96 97
168 168 169 169 174 181 179 178 180 178 175 170 167 167 168 170 169 172 173 170 167 165 163 156 152 153 152 154 157 160 158 154 154 153 149 146 142 138 135 132 130 133 139 148 153 149 140 129 120 112 108 109 124 143 148 153 153 145 144 154 164 169 168 168 165 155 144 139 142 142 132 124 124 116 114 101 76 71 78 85 94 98 97 101 103
173 169 172 174 177 185 183 180 183 179 174 169 167 168 169 171 172 174 173 169 165 163 161 156 155 156 157 160 163 165 161 158 158 156 155 148 142 136 132 130 129 137 142 148 156 162 161 144 131 117 106 98 107 138 149 153 160 159 154 156 164 171 172 173 171 163 151 142 145 148 137 124 121 114 117 107 85 80 82 81 86 93 98 102 98
182 172 174 177 179 185 186 183 182 178 173 169 168 169 171 174 175 176 173 167 163 160 161 162 161 160 161 163 167 169 165 168 165 160 160 150 144 138 131 126 121 135 147 149 154 167 175 159 146 129 108 95 95 127 146 152 156 160 160 161 167 172 176 178 177 168 153 145 148 155 153 138 125 118 117 110 98 90 85 79 74 76 86 90 88
187 178 178 181 182 186 187 186 181 175 174 171 170 171 175 178 178 177 172 165 162 161 164 166 166 165 165 167 170 174 174 176 173 167 165 156 152 147 137 129 115 125 152 160 159 166 173 162 151 137 116 102 97 117 144 149 149 149 152 158 166 174 181 181 176 169 156 150 153 158 162 157 133 115 106 106 106 100 96 90 76 75 87 91 90
190 187 184 184 188 189 187 186 179 175 176 173 172 175 178 180 180 178 170 165 164 163 167 170 169 169 171 172 175 183 182 178 176 171 167 160 161 160 147 139 137 136 149 161 165 164 166 158 148 139 126 117 110 120 140 147 146 149 155 162 169 176 182 181 176 171 161 156 158 155 153 153 140 116 100 103 111 107 105 104 84 79 89 101 99
190 189 186 188 190 189 186 184 179 177 179 176 175 178 179 180 181 178 168 166 167 168 171 171 170 170 171 172 180 190 186 181 178 176 176 175 177 176 168 166 173 173 160 159 164 162 160 153 146 140 134 130 127 132 144 149 148 153 163 168 171 178 184 183 178 172 165 162 162 156 150 152 146 132 109 104 114 114 120 132 93 86 90 98 101
188 186 185 189 189 188 184 181 180 181 181 179 179 179 180 181 182 177 171 172 174 176 176 171 170 170 168 171 179 186 185 187 191 193 193 196 201 191 185 180 178 182 179 166 159 155 152 151 149 144 140 140 140 146 156 155 152 158 163 165 170 181 185 177 166 167 171 168 165 161 155 156 152 141 126 112 109 107 123 138 104 99 98 98 99
181 183 185 186 187 187 182 179 183 183 183 184 182 181 183 183 182 179 175 179 183 184 180 172 172 172 173 177 175 175 180 193 201 202 204 208 213 204 190 179 178 183 183 176 157 148 147 146 147 146 143 146 150 153 161 162 159 161 157 156 164 173 172 162 159 173 177 171 168 167 160 157 155 144 136 136 128 108 110 115 109 112 110 108 109
91 168 188 189 190 188 182 182 186 185 184 187 186 184 186 185 185 183 182 188 189 187 182 176 177 174 173 175 172 168 174 192 200 199 203 205 203 204 196 183 180 182 187 183 161 149 150 146 144 151 152 152 159 160 160 161 155 152 148 145 151 158 161 162 171 177 174 171 168 165 159 159 163 156 145 149 150 134 124 121 115 120 125 128 111
157 197 210 196 192 191 189 189 189 189 188 189 189 188 190 189 188 187 188 193 192 188 185 182 182 173 169 170 172 176 183 197 200 197 201 203 199 199 201 191 182 184 191 189 174 159 155 153 147 156 165 162 167 164 154 147 142 145 145 141 140 146 158 171 178 175 173 175 170 161 158 158 164 165 156 155 160 155 155 159 146 145 160 173 56
192 198 210 203 195 192 195 194 193 194 192 191 191 192 192 192 192 191 192 194 193 193 188 186 183 171 165 167 172 179 188 196 199 201 197 200 202 198 205 201 188 190 195 191 186 173 163 163 157 160 175 172 171 163 148 138 133 135 137 135 132 140 164 184 178 168 171 179 173 165 162 161 164 166 164 165 169 169 171 175 176 182 197 227 290
205 202 200 199 196 193 194 194 194 196 195 192 192 194 193 191 191 192 193 195 197 196 189 188 183 165 156 160 166 172 181 188 193 198 190 190 197 196 203 202 194 194 194 193 189 179 171 171 171 173 177 169 165 157 147 137 124 121 124 122 120 131 166 190 168 158 167 181 176 164 164 166 168 168 171 175 174 177 176 178 193 206 219 265 319
194 202 197 193 191 190 189 189 193 196 195 193 192 192 190 188 190 188 188 192 197 195 188 187 174 156 152 154 162 169 175 178 182 187 185 188 193 196 197 191 192 190 192 201 195 184 177 176 184 185 178 162 148 147 148 138 119 108 109 112 112 123 153 155 151 159 168 177 169 162 170 170 170 171 175 184 183 184 178 167 175 182 183 9 19
194 198 193 190 185 182 182 183 189 192 192 191 190 190 188 185 186 183 183 187 192 189 184 181 165 155 156 156 162 167 170 172 176 181 184 192 194 196 196 188 190 190 193 204 200 192 180 177 187 187 182 164 146 143 147 138 119 106 104 103 100 114 159 141 134 156 170 172 163 165 176 171 170 172 177 187 188 190 183 153 128 85 58 49 42
213 199 192 187 178 176 178 180 185 187 189 190 187 188 190 190 186 182 182 183 183 182 177 172 163 160 161 162 166 168 169 172 176 184 188 197 202 203 198 192 192 191 195 199 198 192 178 175 185 185 180 173 159 152 151 143 127 120 116 103 91 101 126 97 98 120 148 152 155 177 189 175 168 169 176 184 180 180 164 123 94 91 78 60 48
211 200 195 186 175 175 177 177 181 184 186 187 186 186 189 192 190 185 182 178 175 175 172 168 164 165 167 168 173 171 171 175 179 189 193 200 210 209 201 197 198 197 197 195 192 186 176 175 186 189 180 172 166 161 161 158 143 134 123 112 97 104 103 80 82 82 77 90 105 155 189 176 167 169 177 178 173 170 144 120 109 98 76 52 51
197 194 192 182 174 174 176 177 179 181 183 185 187 186 185 187 189 186 179 172 171 170 167 166 165 167 171 172 173 172 171 176 182 189 194 202 204 201 201 199 200 204 201 196 192 184 178 178 186 194 186 173 168 169 172 166 154 146 123 99 101 109 124 96 83 70 65 78 80 92 148 147 141 153 162 160 161 159 132 117 104 81 65 61 66
195 192 187 179 173 173 178 179 176 179 182 184 186 184 181 180 178 172 168 165 167 170 169 167 168 168 170 170 168 169 170 173 180 185 190 199 193 191 198 197 198 204 200 197 197 187 183 185 187 192 193 185 177 176 179 171 166 165 144 126 119 110 185 145 110 72 65 83 89 90 112 125 127 132 139 136 134 131 115 109 100 77 73 78 76
194 188 183 177 174 174 178 178 175 178 182 185 187 185 182 180 172 163 163 165 166 172 172 167 166 165 162 162 161 161 163 163 167 173 176 181 181 182 188 194 198 200 194 196 203 196 188 191 191 192 198 200 191 183 184 181 176 174 155 147 140 155 165 148 127 72 70 85 100 105 99 110 121 125 129 127 121 117 110 106 99 92 92 89 86
191 182 179 177 174 172 175 178 178 180 184 186 186 186 183 181 176 170 169 169 168 171 171 165 162 158 153 153 153 151 150 149 150 157 161 161 165 170 177 188 194 192 187 194 204 204 197 196 195 195 199 206 202 192 190 187 180 179 173 167 117 130 159 155 148 146 100 78 95 112 115 118 123 123 121 119 116 112 109 108 106 107 105 99 98
183 176 171 171 171 170 174 179 181 184 187 186 185 186 183 178 176 174 172 172 170 168 168 167 162 156 153 152 149 148 146 145 144 144 146 145 146 152 166 178 185 186 188 194 204 209 206 203 199 199 203 208 211 203 198 197 190 186 185 191 223 151 165 169 159 143 125 98 96 106 121 124 123 122 119 117 118 116 114 115 118 116 114 110 107
180 173 164 163 165 168 175 180 183 187 189 187 185 184 183 179 177 175 172 172 172 170 170 170 165 160 159 158 158 157 153 152 150 147 144 141 139 144 156 168 175 182 187 193 203 209 209 211 205 203 207 210 214 215 210 209 205 196 188 181 162 156 163 169 155 136 118 129 124 109 124 121 118 121 126 125 121 122 122 121 122 121 118 116 112
175 167 159 157 159 166 175 179 183 187 187 187 185 184 184 183 181 177 173 172 172 172 171 168 166 164 162 164 167 166 165 163 160 157 152 145 144 147 155 165 169 177 183 191 200 204 208 217 215 210 214 213 213 218 219 220 220 213 199 182 164 156 153 151 151 137 116 112 117 135 137 123 118 118 123 126 120 119 121 120 122 122 120 118 115
166 163 158 156 160 167 172 175 182 187 187 186 187 187 186 186 184 179 176 175 174 170 166 162 162 163 160 161 165 168 170 170 167 164 157 150 151 155 171 189 185 181 182 190 198 204 208 214 216 215 218 218 219 220 220 222 227 225 214 200 188 179 175 180 172 155 136 126 127 138 132 120 121 120 123 124 117 116 117 119 123 121 121 120 115
Height
768 771 773 776 777 779 781 782 784 784 785 786 787 788 789 790 791 792 793 794 795 796 796 797 798 799 800 801 802 803 804 805 806 807 809 810 811 813 814 815 816 816 817 818 818 819 819 820 820 820 821 822 823 824 824 825 826 826 827 827 827 827 827 827 827 827 828 828 827 827 828 827 827 827 828 828 828 828 828 828 828 828 827 827 827
766 770 773 775 777 779 781 782 784 785 785 786 788 789 790 790 792 793 794 795 796 797 798 799 799 801 801 802 804 804 805 806 807 808 810 811 812 813 814 815 816 817 818 819 819 820 821 821 821 821 822 823 824 825 825 826 827 827 828 828 828 828 828 828 828 828 828 829 829 829 829 829 829 829 830 830 830 830 830 830 830 829 829 829 829
766 770 772 775 777 779 781 783 784 786 786 787 789 790 791 791 792 793 795 796 797 799 800 800 801 802 803 804 805 805 806 807 808 809 811 812 813 814 815 816 817 818 819 820 820 821 822 822 823 823 823 824 825 826 826 827 828 828 828 829 829 829 829 829 829 829 829 830 830 830 831 831 831 831 831 831 832 832 832 832 832 831 831 831 831
767 770 772 775 777 780 781 783 785 786 787 788 790 790 792 792 793 794 796 797 799 800 801 802 803 803 804 805 806 806 807 808 810 810 811 813 814 815 816 817 818 819 820 821 821 822 823 824 824 824 825 825 826 827 827 828 829 829 829 830 830 830 830 830 830 830 830 831 831 832 832 832 833 833 833 833 833 833 834 834 833 833 833 832 832
768 770 772 775 777 780 782 784 786 787 788 789 790 791 792 793 794 795 796 798 800 801 802 803 804 805 806 806 807 808 809 809 811 811 812 813 815 816 817 818 819 820 821 822 823 824 824 825 825 825 826 826 827 828 829 829 830 830 830 831 831 831 831 831 831 831 831 832 833 833 833 834 834 834 835 835 835 835 835 835 835 835 835 834 834
768 770 772 775 777 780 782 784 786 787 789 790 791 792 793 794 795 796 797 799 801 802 803 804 805 806 807 808 808 809 810 810 811 812 813 814 815 817 818 819 820 821 822 823 824 825 825 826 826 827 827 828 828 829 829 830 830 831 831 831 832 832 832 832 832 832 833 833 834 834 835 835 836 836 836 837 837 837 837 837 837 837 837 836 836
769 771 773 775 777 779 782 784 786 788 789 791 792 793 794 795 795 797 798 800 802 803 804 806 807 808 808 809 809 810 811 812 812 813 814 815 816 817 818 819 820 821 822 824 825 825 826 827 827 827 828 829 829 830 830 831 831 831 832 832 832 833 833 834 833 834 834 834 835 835 836 836 837 837 838 838 838 839 839 839 838 838 838 838 838
770 771 773 775 777 780 782 784 786 788 790 791 793 794 795 795 797 798 799 801 802 804 805 806 808 809 809 810 811 811 812 813 813 814 815 817 818 819 819 820 821 822 823 824 825 826 827 828 828 828 829 830 830 831 831 831 831 832 832 833 833 833 834 834 835 835 835 836 836 836 837 837 837 838 839 839 839 840 840 840 840 840 840 840 840
771 772 774 776 778 781 783 785 787 788 790 792 794 795 796 797 798 799 800 802 803 804 806 807 809 810 810 811 812 812 813 814 814 815 816 818 819 820 820 821 822 823 824 825 826 827 828 828 829 829 830 830 831 831 832 832 832 832 833 833 834 834 834 835 836 836 836 837 837 838 838 838 838 839 840 840 840 841 841 841 841 841 841 841 841
772 774 776 777 779 782 784 786 787 789 791 792 794 796 797 798 799 800 801 803 804 805 807 808 809 810 811 811 812 813 814 815 815 816 817 819 820 820 821 822 823 824 825 825 827 828 829 829 830 830 831 831 832 832 832 832 832 833 833 834 834 835 835 836 836 837 837 838 838 839 839 839 839 840 841 841 842 842 842 842 843 843 843 843 842
773 775 777 779 781 782 784 786 788 790 791 793 795 796 798 799 800 801 802 804 805 806 808 809 810 811 811 812 813 814 815 815 816 817 818 819 820 821 822 823 824 825 826 827 828 829 830 831 831 831 832 832 833 833 833 833 833 834 834 834 835 836 836 837 837 838 838 839 839 840 840 841 841 841 842 843 843 843 844 844 844 844 844 844 844
774 776 778 780 782 784 785 786 788 790 792 793 795 797 799 800 801 803 804 805 806 808 809 810 811 812 812 813 814 814 815 816 817 818 819 820 821 821 822 824 825 826 827 828 829 830 831 832 832 833 833 833 833 833 833 833 834 835 835 835 836 837 837 838 838 838 839 840 840 841 842 842 842 843 843 844 844 845 845 845 845 845 845 845 845
775 777 779 781 783 785 786 787 789 791 792 794 796 798 799 801 802 804 805 806 807 809 810 811 811 812 813 814 814 815 816 817 818 819 820 821 822 822 823 824 826 827 828 829 830 830 832 833 833 834 834 834 834 834 834 834 835 835 836 836 837 838 838 839 839 839 840 841 842 842 843 843 844 844 844 845 845 846 846 846 846 846 846 846 846
775 778 780 782 783 786 787 788 789 791 793 795 797 798 800 802 803 804 805 807 808 809 810 811 812 813 814 815 815 816 817 818 819 820 821 822 822 823 824 825 826 827 829 830 831 832 832 833 834 834 834 835 834 834 834 835 835 836 836 837 838 838 839 839 840 840 841 842 843 843 844 844 845 845 846 846 846 847 847 848 848 848 848 847 847
776 778 781 782 784 787 788 789 790 792 793 795 797 799 801 802 804 805 806 807 809 810 811 812 813 814 815 816 817 817 819 820 820 821 822 823 823 824 825 826 826 827 828 830 831 832 833 833 834 835 835 835 835 835 835 836 836 837 837 838 839 839 840 840 841 841 842 843 844 844 845 845 845 846 847 847 848 848 848 849 849 849 849 849 849
777 779 781 783 785 787 788 789 791 792 794 796 798 800 801 803 804 805 807 808 809 810 812 813 814 815 816 817 818 819 820 821 822 822 823 824 825 826 826 827 827 828 828 829 831 832 833 834 834 835 835 836 836 836 836 837 837 837 837 838 839 840 841 841 841 842 843 843 844 845 846 846 846 847 847 848 849 849 850 850 850 850 850 851 850
778 780 781 783 785 786 788 790 791 793 795 797 799 800 802 803 805 806 808 809 810 811 812 814 815 816 817 818 819 820 821 822 823 824 825 825 826 827 828 828 828 829 829 830 831 832 833 833 834 835 835 836 836 837 837 837 838 838 838 839 840 841 842 842 842 842 843 844 845 846 846 847 847 847 848 849 849 850 850 851 851 852 852 852 852
779 781 782 783 785 786 788 790 792 794 796 797 799 801 803 804 805 807 808 809 811 812 813 814 815 816 817 819 820 821 822 823 824 825 826 826 827 828 829 829 829 829 830 831 831 831 832 833 833 834 835 836 836 837 838 838 839 839 838 839 840 841 842 843 843 843 843 844 845 846 847 848 848 848 849 849 850 850 851 852 852 852 853 853 853
780 781 782 784 785 787 789 791 793 794 796 798 800 801 803 804 805 807 808 810 811 812 813 814 816 817 818 819 821 822 822 824 825 826 827 827 828 828 829 830 830 830 830 831 831 832 832 832 833 833 835 836 836 837 838 838 839 839 839 839 841 842 843 843 843 843 844 845 846 847 848 848 849 849 849 850 850 851 851 852 852 853 853 854 854
781 782 783 784 786 788 789 792 793 794 796 798 800 801 803 804 806 807 808 810 811 812 814 815 816 817 818 820 821 822 823 824 825 826 828 828 829 829 830 831 831 831 831 831 831 832 832 832 833 833 834 835 836 837 838 839 839 839 839 840 841 842 843 844 844 844 845 845 846 847 848 849 850 850 850 851 851 851 852 852 853 854 854 855 855
782 783 784 785 787 789 790 792 793 795 796 798 800 801 803 804 806 808 809 810 811 813 814 815 816 818 819 820 821 822 823 824 825 827 828 829 829 830 830 831 832 832 832 831 832 832 833 833 833 833 834 835 836 837 838 839 840 840 840 841 842 843 844 845 845 846 846 847 847 848 849 850 850 851 851 851 852 852 853 853 854 854 855 855 856
782 784 786 786 788 790 791 793 794 796 797 799 800 801 803 804 806 808 809 811 812 813 814 815 817 818 819 820 821 822 823 825 826 827 828 829 830 830 831 832 832 832 833 832 832 833 833 834 834 834 834 835 836 837 838 839 840 840 841 841 843 844 845 846 846 847 847 848 848 849 850 851 851 852 852 852 853 853 853 854 854 854 855 855 856
782 784 786 787 789 790 792 793 794 796 797 799 800 801 803 805 807 808 809 811 812 813 814 816 817 818 819 821 822 823 824 825 826 828 828 829 830 830 831 832 832 833 833 833 833 833 834 835 835 834 834 835 836 838 839 839 840 840 841 842 844 845 846 847 847 848 848 849 850 851 851 852 852 853 853 853 854 854 854 854 855 855 855 855 856
781 783 786 787 789 791 792 794 795 796 797 798 800 802 803 805 807 808 809 811 812 813 814 816 817 818 820 821 822 823 825 826 827 828 828 829 830 831 831 832 833 833 834 834 834 834 835 835 835 835 835 836 837 838 839 840 840 841 842 843 844 846 847 848 848 849 850 851 851 852 853 853 854 854 854 854 855 856 856 856 855 856 856 856 856
780 783 785 787 789 790 792 793 794 795 796 797 799 801 803 805 806 808 809 811 812 814 815 816 818 819 820 822 823 824 825 826 827 828 829 829 830 831 832 832 833 833 834 834 835 835 835 836 836 836 836 837 838 839 840 840 841 841 842 844 845 846 847 849 849 850 851 852 853 854 854 854 855 855 855 855 856 856 857 857 856 857 857 857 857
780 782 783 786 788 790 791 792 793 794 795 796 798 801 803 804 806 808 809 811 813 814 816 817 818 820 821 823 824 825 826 827 828 828 829 830 831 832 832 833 833 834 835 835 836 836 836 837 837 837 837 838 839 840 840 841 841 842 843 845 846 847 848 850 850 851 852 852 853 854 855 855 856 856 856 857 857 857 857 857 857 858 858 858 858
780 781 783 786 787 789 790 791 792 793 795 797 799 801 802 804 806 808 810 811 813 814 816 818 819 820 822 823 825 826 826 827 828 829 830 831 832 832 833 834 834 835 835 836 836 837 837 837 838 838 838 839 839 840 841 842 842 843 844 845 847 848 849 851 851 852 853 853 854 855 856 856 857 857 858 858 858 858 858 859 859 859 859 859 859
781 782 784 786 787 788 789 790 791 792 795 797 799 801 803 805 806 808 810 812 813 815 817 818 820 821 823 824 825 826 827 827 828 829 830 831 832 833 834 835 835 836 836 837 837 837 838 838 839 839 839 839 840 840 841 842 843 844 845 846 847 849 850 851 852 853 853 854 855 856 857 857 858 858 859 859 859 859 860 860 860 860 860 860 860
781 782 784 785 786 787 788 790 791 793 795 797 799 801 803 805 806 808 810 812 814 816 817 819 820 821 823 824 825 826 827 828 829 830 831 832 833 834 835 836 836 837 837 837 837 838 838 839 839 839 839 840 840 840 841 842 843 844 845 846 848 849 850 851 852 853 854 855 856 857 858 859 859 860 860 860 860 860 861 861 861 861 861 861 861
781 782 783 785 785 786 788 790 792 794 795 797 799 801 803 805 806 808 810 812 814 816 818 819 820 822 823 825 826 827 828 828 829 831 832 833 834 835 836 836 837 837 837 837 837 838 838 839 839 839 840 840 840 840 841 842 843 845 846 847 848 849 851 851 852 853 855 856 857 858 859 860 860 861 861 861 861 861 862 862 862 862 862 862 862
782 783 783 784 785 786 789 791 793 794 796 797 799 801 803 805 806 808 810 812 814 816 818 819 821 823 824 825 826 827 828 829 830 831 832 833 834 835 836 837 837 838 838 838 838 838 838 839 839 840 840 840 840 841 842 843 844 845 847 848 849 850 851 852 853 854 855 857 857 859 860 861 861 862 862 862 862 862 862 863 863 863 863 863 863
780 782 782 783 785 787 790 793 794 795 796 797 799 801 802 804 806 808 810 812 814 816 818 819 821 823 824 825 827 828 829 829 830 831 832 833 834 835 836 837 838 838 838 838 838 838 839 839 840 840 840 841 841 841 842 843 844 846 847 848 849 850 851 852 853 854 855 857 858 859 860 861 862 863 863 863 863 863 863 864 864 864 863 864 864
778 781 783 783 785 789 792 794 795 796 797 798 799 801 802 804 806 808 811 812 814 816 818 820 821 823 824 826 827 828 829 830 830 831 832 833 834 835 836 837 837 838 838 839 839 839 839 840 840 840 841 841 841 842 843 844 845 846 847 849 850 850 851 852 853 854 855 857 858 860 860 861 862 863 864 864 864 864 864 864 865 864 864 864 865
777 781 782 784 787 790 793 795 796 797 797 798 799 801 802 804 806 808 811 813 814 816 818 820 821 823 825 826 827 827 828 829 830 831 832 833 834 835 836 837 838 838 839 839 839 840 840 840 840 841 841 842 842 843 844 844 845 847 848 849 850 851 851 853 855 856 857 857 858 860 861 861 863 864 864 865 865 865 865 865 865 865 865 865 865
780 783 786 788 790 793 795 796 796 797 797 799 800 801 803 804 806 809 811 813 814 816 818 820 822 823 825 825 826 827 828 829 830 831 832 833 834 835 836 837 838 838 839 839 840 840 841 841 841 841 842 842 843 843 844 845 846 847 848 849 851 852 854 855 856 857 858 858 859 860 861 862 863 864 865 865 866 865 865 866 866 866 865 866 866
787 790 791 791 793 795 796 796 797 797 797 799 800 802 803 805 807 809 811 812 814 816 818 820 822 823 824 825 826 827 828 829 830 831 832 833 834 835 836 837 838 838 839 839 840 841 841 841 841 842 842 843 843 844 845 846 846 848 849 850 852 854 856 856 856 857 858 858 859 860 861 862 863 864 865 865 866 866 866 866 866 866 866 867 867
790 793 794 794 794 795 796 796 796 797 798 799 801 802 804 806 808 809 811 812 814 816 818 820 821 823 824 825 826 827 828 829 830 830 831 833 834 835 836 837 837 838 838 839 840 841 841 841 841 842 843 843 844 845 845 846 847 848 850 851 853 854 856 856 856 857 858 859 860 861 861 862 863 864 865 866 866 867 867 867 867 866 867 867 868
786 788 790 791 791 792 794 795 795 796 797 799 800 802 804 806 808 810 811 813 815 816 818 820 821 822 823 825 826 827 827 828 829 830 831 832 833 835 836 837 837 838 838 839 839 840 841 841 841 842 843 844 844 845 846 847 848 850 851 853 854 855 855 855 856 858 860 860 860 861 862 863 864 865 866 867 867 867 867 867 867 867 867 868 868
781 781 782 783 785 788 790 792 794 794 796 798 800 802 804 806 808 810 811 813 815 816 818 820 821 822 823 824 825 826 827 828 829 830 831 832 833 835 836 836 837 838 838 838 839 840 841 841 841 842 843 844 845 845 846 847 849 851 852 854 855 855 854 854 857 860 860 860 861 862 863 863 864 865 866 867 867 867 867 868 868 868 868 868 868
766 770 772 772 775 780 784 788 790 792 795 797 799 801 803 806 807 809 811 812 814 816 818 820 821 822 823 824 825 826 827 828 829 830 831 831 832 834 835 836 837 837 837 837 838 839 840 841 841 842 843 844 845 846 847 848 849 852 853 855 855 856 855 856 858 860 860 860 862 862 863 864 865 866 866 867 867 868 868 868 868 868 868 868 868
757 759 764 766 767 773 778 783 787 790 793 795 797 800 802 804 806 808 810 812 814 816 818 819 821 822 823 824 825 826 827 827 828 829 830 831 832 833 834 835 836 836 836 837 837 838 839 840 841 842 843 844 846 847 848 848 849 852 854 855 856 856 857 857 859 860 860 861 862 863 864 864 865 866 866 867 867 868 868 868 868 868 868 869 869
762 765 769 771 772 774 777 780 784 787 791 794 796 798 801 803 805 807 809 811 814 815 817 819 820 822 823 825 825 826 826 827 828 828 829 830 831 832 833 834 835 835 836 836 837 837 838 840 840 841 842 844 845 847 848 848 849 851 853 855 857 858 858 858 859 860 860 862 864 865 864 864 865 866 867 867 867 868 868 869 869 869 869 869 869
766 770 774 776 776 777 779 781 783 786 789 792 795 797 800 802 805 807 809 811 813 815 817 818 820 822 824 825 825 826 826 827 828 828 829 830 831 832 833 834 835 835 835 835 836 837 838 839 840 840 842 843 845 846 847 847 848 850 852 854 857 858 859 859 859 860 861 862 865 865 864 864 865 867 867 867 867 868 869 869 870 869 870 870 870
766 769 773 776 777 778 780 782 783 785 788 791 794 797 799 802 805 807 809 811 813 815 817 818 820 822 823 825 826 826 827 827 828 828 829 830 831 832 832 833 834 834 835 835 835 836 837 838 839 840 841 842 844 845 846 847 847 849 851 854 856 858 859 859 859 861 862 863 864 863 862 863 864 866 867 867 867 868 868 870 871 871 871 871 870
765 768 772 775 777 779 781 783 785 786 788 791 794 796 799 802 805 807 810 812 814 815 816 818 819 821 823 825 826 827 828 828 829 829 829 830 831 832 833 833 834 834 835 835 835 836 837 838 839 840 840 841 842 844 845 846 847 848 849 852 855 857 858 858 859 861 862 863 863 861 862 864 864 865 865 866 867 867 869 870 871 871 871 871 871
764 769 772 775 776 779 782 784 786 787 789 791 793 796 798 801 803 806 808 811 813 815 816 817 819 821 823 825 826 827 828 829 829 829 829 830 831 832 833 834 834 835 835 836 836 837 838 839 839 840 841 841 842 843 844 845 847 848 848 849 851 853 854 856 859 862 863 864 864 863 863 865 864 865 865 866 867 867 868 870 870 871 871 871 871
764 769 772 775 777 779 782 784 786 788 789 791 793 796 798 800 802 804 807 810 812 814 816 818 820 821 823 825 827 828 829 829 829 830 830 830 831 832 833 834 835 836 836 836 837 838 839 839 840 841 841 842 842 843 843 845 846 847 848 848 849 849 851 854 857 860 863 865 865 864 864 864 865 865 866 866 867 867 868 869 869 870 870 870 871
765 769 771 774 776 779 782 784 786 788 790 792 794 796 798 800 802 804 807 810 813 815 817 819 821 822 824 825 827 828 829 830 830 830 830 831 831 832 833 834 835 836 836 837 838 839 840 840 841 841 842 842 842 843 843 844 845 846 847 848 849 850 851 852 854 856 860 864 866 865 865 864 865 866 867 867 868 867 868 868 869 869 869 869 870
766 768 770 772 775 778 781 784 786 789 791 792 794 797 799 800 802 805 808 811 814 816 817 819 821 822 824 826 827 828 829 830 830 831 831 831 831 832 833 834 835 836 837 838 838 839 840 840 841 841 842 842 843 843 843 844 844 845 847 848 848 850 851 853 854 855 858 862 865 866 866 866 866 867 868 868 869 869 869 869 869 869 869 869 870
767 769 770 772 775 777 781 784 786 789 791 793 795 797 799 801 803 805 808 812 814 816 817 819 821 822 824 826 828 829 830 830 831 831 831 831 832 832 833 834 835 836 837 837 838 839 840 841 841 842 842 842 843 843 844 844 844 845 846 847 848 849 851 852 854 855 857 860 864 866 867 867 868 870 870 870 870 870 870 871 871 871 871 871 871
767 770 771 773 775 777 781 784 786 789 791 793 795 797 799 801 803 806 808 811 813 815 817 819 821 823 824 826 828 829 830 830 831 831 831 831 832 833 833 834 834 835 836 837 838 839 840 841 841 842 842 842 843 843 844 844 844 845 846 847 847 848 848 850 851 853 855 858 862 866 868 869 870 871 871 871 871 871 872 872 872 873 873 873 873